Tracking 35334 objects as of 13-Sep-2026
HD Live streaming from Space Station
objects crossing your sky now

FLOCK 2K 05


FLOCK 2K 05 is no longer on orbit
FLOCK 2K 05 is classified as:


NORAD ID: 42864
Int'l Code: 2017-042AR
Launch date: July 14, 2017
Source: United States (US)
Launch site: TYURATAM MISSILE AND SPACE COMPLEX (TTMTR)
Decay date: 2022-04-07
Your satellite tracking list
Your tracking list is empty




NASA's NSSDC Master Catalog

Two Line Element Set (TLE):
1 42864U 17042AR  22097.49225442  .17985469  22707-5  54286-3 0  9990
2 42864  96.7920 309.4306 0008726 246.4753 113.5634 16.44504549266591
Source of the keplerian elements: AFSPC